| time (UTC) | temp F | wind direction | speed knots | gust knots | rain 1hr in | rain 24hr in | rain mn in | humidity % | barometer mb |
| 20260503032432 | 60 | 119 | 0.0 | 0.0 | 0.00 | 0.00 | 0.00 | 20 | 1015.7 |
| 20260503031933 | 60 | 119 | 0.0 | 0.0 | 0.00 | 0.00 | 0.00 | 19 | 1015.7 |
| 20260503031432 | 61 | 119 | 0.0 | 0.0 | 0.00 | 0.00 | 0.00 | 18 | 1015.7 |
| 20260503030932 | 61 | 119 | 0.0 | 0.0 | 0.00 | 0.00 | 0.00 | 18 | 1015.5 |
| 20260503030434 | 61 | 119 | 0.0 | 0.0 | 0.00 | 0.00 | 0.00 | 17 | 1015.5 |
| 20260503025932 | 62 | 119 | 0.0 | 0.0 | 0.00 | 0.00 | 0.00 | 17 | 1015.7 |
| 20260503025431 | 62 | 119 | 0.0 | 0.0 | 0.00 | 0.00 | 0.00 | 16 | 1015.5 |
| 20260503024924 | 62 | 119 | 0.0 | 0.0 | 0.00 | 0.00 | 0.00 | 16 | 1015.5 |
| 20260503024418 | 63 | 119 | 0.0 | 0.0 | 0.00 | 0.00 | 0.00 | 15 | 1015.5 |
| 20260503023911 | 63 | 119 | 0.0 | 0.0 | 0.00 | 0.00 | 0.00 | 15 | 1015.4 |
| 20260503023407 | 64 | 119 | 0.0 | 0.0 | 0.00 | 0.00 | 0.00 | 14 | 1015.4 |
| 20260503021848 | 65 | 119 | 0.0 | 0.9 | 0.00 | 0.00 | 0.00 | 14 | 1015.2 |
| 20260503021342 | 66 | 119 | 0.0 | 0.0 | 0.00 | 0.00 | 0.00 | 13 | 1015.2 |
| 20260503020836 | 66 | 119 | 0.0 | 0.0 | 0.00 | 0.00 | 0.00 | 13 | 1015.1 |
| 20260503020331 | 67 | 119 | 0.0 | 0.9 | 0.00 | 0.00 | 0.00 | 12 | 1015.1 |
| 20260503015825 | 67 | 119 | 0.0 | 0.9 | 0.00 | 0.00 | 0.00 | 12 | 1015.1 |
| 20260503015318 | 67 | 119 | 0.0 | 0.9 | 0.00 | 0.00 | 0.00 | 12 | 1015.1 |
| 20260503014812 | 68 | 119 | 0.0 | 0.0 | 0.00 | 0.00 | 0.00 | 11 | 1015.1 |
| 20260503013800 | 68 | 119 | 0.0 | 0.0 | 0.00 | 0.00 | 0.00 | 11 | 1015.1 |
| 20260503012747 | 68 | 119 | 0.0 | 0.0 | 0.00 | 0.00 | 0.00 | 11 | 1015.0 |
| 20260503012243 | 68 | 119 | 0.0 | 0.0 | 0.00 | 0.00 | 0.00 | 11 | 1015.0 |
| 20260503011736 | 69 | 119 | 0.0 | 0.0 | 0.00 | 0.00 | 0.00 | 10 | 1015.0 |
| 20260503010723 | 69 | 119 | 0.0 | 0.0 | 0.00 | 0.00 | 0.00 | 10 | 1015.0 |
| 20260503010218 | 69 | 119 | 0.0 | 0.0 | 0.00 | 0.00 | 0.00 | 10 | 1014.8 |
| 20260503005712 | 70 | 119 | 0.0 | 0.0 | 0.00 | 0.00 | 0.00 | 10 | 1014.7 |
| 20260503005206 | 70 | 119 | 0.0 | 0.9 | 0.00 | 0.00 | 0.00 | 9 | 1014.8 |
| 20260503004700 | 71 | 119 | 0.0 | 1.7 | 0.00 | 0.00 | 0.00 | 9 | 1014.7 |
| 20260503004155 | 71 | 119 | 0.0 | 1.7 | 0.00 | 0.00 | 0.00 | 9 | 1014.8 |
| 20260503003649 | 72 | 121 | 0.0 | 1.7 | 0.00 | 0.00 | 0.00 | 9 | 1015.0 |
| 20260503002636 | 72 | 120 | 0.0 | 0.0 | 0.00 | 0.00 | 0.00 | 9 | 1015.0 |
| 20260503002130 | 73 | 120 | 0.0 | 1.7 | 0.00 | 0.00 | 0.00 | 8 | 1015.0 |
| 20260503001624 | 73 | 118 | 0.0 | 0.9 | 0.00 | 0.00 | 0.00 | 8 | 1015.1 |
| 20260503001118 | 73 | 117 | 0.0 | 0.9 | 0.00 | 0.00 | 0.00 | 6 | 1015.1 |
| 20260503000611 | 73 | 117 | 0.0 | 0.9 | 0.00 | 0.00 | 0.00 | 7 | 1015.1 |
| 20260503000108 | 73 | 117 | 0.0 | 0.9 | 0.00 | 0.00 | 0.00 | 8 | 1015.2 |
| 20260502235601 | 74 | 117 | 0.0 | 0.9 | 0.00 | 0.00 | 0.00 | 7 | 1015.2 |
| 20260502235054 | 74 | 116 | 0.0 | 0.0 | 0.00 | 0.00 | 0.00 | 7 | 1015.3 |
| 20260502234042 | 74 | 117 | 0.0 | 0.9 | 0.00 | 0.00 | 0.00 | 7 | 1015.4 |
| 20260502233535 | 75 | 109 | 0.0 | 0.9 | 0.00 | 0.00 | 0.00 | 8 | 1015.4 |
| 20260502233030 | 75 | 109 | 0.0 | 0.0 | 0.00 | 0.00 | 0.00 | 7 | 1015.4 |
| 20260502232017 | 75 | 105 | 0.0 | 0.0 | 0.00 | 0.00 | 0.00 | 7 | 1015.5 |
| 20260502231511 | 75 | 106 | 0.0 | 0.0 | 0.00 | 0.00 | 0.00 | 7 | 1015.4 |
| 20260502231005 | 76 | 105 | 0.0 | 1.7 | 0.00 | 0.00 | 0.00 | 6 | 1015.5 |
| 20260502230501 | 75 | 105 | 0.0 | 1.7 | 0.00 | 0.00 | 0.00 | 7 | 1015.5 |
| 20260502225955 | 75 | 109 | 0.0 | 0.0 | 0.00 | 0.00 | 0.00 | 7 | 1015.5 |
| 20260502225449 | 76 | 111 | 0.0 | 0.9 | 0.00 | 0.00 | 0.00 | 8 | 1015.5 |
| 20260502224942 | 75 | 111 | 0.0 | 2.6 | 0.00 | 0.00 | 0.00 | 9 | 1015.7 |
| 20260502224437 | 74 | 111 | 0.0 | 2.6 | 0.00 | 0.00 | 0.00 | 8 | 1015.7 |
| 20260502223929 | 75 | 113 | 0.0 | 2.6 | 0.00 | 0.00 | 0.00 | 8 | 1015.7 |
| 20260502223423 | 75 | 113 | 0.0 | 0.0 | 0.00 | 0.00 | 0.00 | 8 | 1015.7 |
| 20260502222918 | 75 | 113 | 0.0 | 2.6 | 0.00 | 0.00 | 0.00 | 7 | 1015.7 |
| 20260502222411 | 75 | 113 | 0.0 | 2.6 | 0.00 | 0.00 | 0.00 | 6 | 1015.9 |
| 20260502221905 | 75 | 117 | 0.0 | 0.0 | 0.00 | 0.00 | 0.00 | 7 | 1015.9 |
| 20260502221359 | 76 | 118 | 0.0 | 3.5 | 0.00 | 0.00 | 0.00 | 8 | 1016.0 |
| 20260502215843 | 76 | 116 | 0.0 | 1.7 | 0.00 | 0.00 | 0.00 | 7 | 1016.4 |
| 20260502215336 | 76 | 115 | 0.0 | 0.9 | 0.00 | 0.00 | 0.00 | 8 | 1016.5 |
| 20260502214831 | 77 | 80 | 0.0 | 0.0 | 0.00 | 0.00 | 0.00 | 8 | 1016.6 |
| 20260502214325 | 77 | 60 | 0.0 | 0.0 | 0.00 | 0.00 | 0.00 | 8 | 1016.7 |
| 20260502213819 | 75 | 60 | 0.0 | 2.6 | 0.00 | 0.00 | 0.00 | 9 | 1016.8 |
| 20260502213312 | 75 | 59 | 0.9 | 4.3 | 0.00 | 0.00 | 0.00 | 9 | 1016.8 |
| 20260502212805 | 75 | 78 | 0.9 | 4.3 | 0.00 | 0.00 | 0.00 | 10 | 1016.9 |
| 20260502212300 | 75 | 52 | 0.0 | 3.5 | 0.00 | 0.00 | 0.00 | 10 | 1017.1 |
| 20260502211754 | 75 | 82 | 0.0 | 3.5 | 0.00 | 0.00 | 0.00 | 10 | 1017.2 |
| 20260502211247 | 75 | 121 | 0.0 | 2.6 | 0.00 | 0.00 | 0.00 | 12 | 1017.3 |
| 20260502210742 | 73 | 121 | 0.0 | 2.6 | 0.00 | 0.00 | 0.00 | 10 | 1017.3 |
| 20260502210235 | 74 | 124 | 0.0 | 2.6 | 0.00 | 0.00 | 0.00 | 11 | 1017.4 |
| 20260502205730 | 75 | 126 | 0.9 | 4.3 | 0.00 | 0.00 | 0.00 | 12 | 1017.4 |
| 20260502205225 | 74 | 244 | 0.9 | 7.0 | 0.00 | 0.00 | 0.00 | 12 | 1017.5 |
| 20260502204719 | 75 | 254 | 0.0 | 7.0 | 0.00 | 0.00 | 0.00 | 11 | 1017.5 |
| 20260502204213 | 76 | 246 | 0.0 | 1.7 | 0.00 | 0.00 | 0.00 | 12 | 1017.8 |
| 20260502203201 | 73 | 256 | 0.0 | 1.7 | 0.00 | 0.00 | 0.00 | 14 | 1017.8 |
| 20260502202148 | 74 | 245 | 0.0 | 0.9 | 0.00 | 0.00 | 0.00 | 11 | 1017.9 |
| 20260502201136 | 73 | 277 | 0.0 | 1.7 | 0.00 | 0.00 | 0.00 | 14 | 1018.0 |
| 20260502200630 | 73 | 288 | 0.0 | 1.7 | 0.00 | 0.00 | 0.00 | 11 | 1018.0 |
| 20260502200124 | 71 | 294 | 0.9 | 6.1 | 0.00 | 0.00 | 0.00 | 11 | 1018.0 |
| 20260502195621 | 71 | 294 | 0.9 | 6.1 | 0.00 | 0.00 | 0.00 | 11 | 1018.1 |
| 20260502195119 | 72 | 263 | 0.0 | 1.7 | 0.00 | 0.00 | 0.00 | 12 | 1018.1 |
| 20260502194620 | 72 | 190 | 0.0 | 2.6 | 0.00 | 0.00 | 0.00 | 13 | 1018.2 |
| 20260502194117 | 72 | 237 | 0.0 | 2.6 | 0.00 | 0.00 | 0.00 | 12 | 1018.2 |
| 20260502193617 | 71 | 275 | 0.0 | 2.6 | 0.00 | 0.00 | 0.00 | 15 | 1018.3 |
| 20260502193118 | 71 | 276 | 0.0 | 2.6 | 0.00 | 0.00 | 0.00 | 17 | 1018.5 |
| 20260502192615 | 69 | 278 | 0.0 | 1.7 | 0.00 | 0.00 | 0.00 | 15 | 1018.6 |
| 20260502192114 | 69 | 279 | 0.0 | 1.7 | 0.00 | 0.00 | 0.00 | 15 | 1018.6 |
| 20260502191116 | 69 | 243 | 0.0 | 1.7 | 0.00 | 0.00 | 0.00 | 17 | 1018.7 |
| 20260502190616 | 69 | 243 | 0.0 | 1.7 | 0.00 | 0.00 | 0.00 | 16 | 1018.8 |
| 20260502190114 | 69 | 244 | 0.0 | 1.7 | 0.00 | 0.00 | 0.00 | 16 | 1018.9 |
| 20260502185114 | 68 | 244 | 0.0 | 3.5 | 0.00 | 0.00 | 0.00 | 16 | 1019.2 |
| 20260502184610 | 67 | 248 | 0.0 | 3.5 | 0.00 | 0.00 | 0.00 | 16 | 1019.2 |
| 20260502184109 | 67 | 257 | 0.0 | 3.5 | 0.00 | 0.00 | 0.00 | 17 | 1019.3 |
| 20260502183109 | 67 | 0 | 0.0 | 3.5 | 0.00 | 0.00 | 0.00 | 16 | 1019.3 |
| 20260502182609 | 67 | 5 | 0.0 | 3.5 | 0.00 | 0.00 | 0.00 | 16 | 1019.5 |
| 20260502182109 | 67 | 49 | 0.0 | 2.6 | 0.00 | 0.00 | 0.00 | 16 | 1019.6 |
| 20260502181609 | 67 | 76 | 0.0 | 0.9 | 0.00 | 0.00 | 0.00 | 17 | 1019.6 |
| 20260502181110 | 66 | 78 | 0.0 | 2.6 | 0.00 | 0.00 | 0.00 | 17 | 1019.7 |
| 20260502180609 | 66 | 78 | 0.0 | 2.6 | 0.00 | 0.00 | 0.00 | 18 | 1019.9 |
| 20260502180110 | 66 | 65 | 0.0 | 1.7 | 0.00 | 0.00 | 0.00 | 18 | 1020.0 |
| 20260502164018 | 62 | 128 | 0.0 | 3.5 | 0.00 | 0.00 | 0.00 | 23 | 1020.6 |
| 20260502163512 | 61 | 145 | 0.0 | 1.7 | 0.00 | 0.00 | 0.00 | 24 | 1020.6 |
| 20260502163008 | 61 | 250 | 0.0 | 1.7 | 0.00 | 0.00 | 0.00 | 26 | 1020.6 |
| 20260502162501 | 60 | 250 | 0.0 | 0.0 | 0.00 | 0.00 | 0.00 | 26 | 1020.6 |
| 20260502161954 | 60 | 251 | 0.0 | 0.0 | 0.00 | 0.00 | 0.00 | 25 | 1020.6 |
| 20260502161448 | 60 | 249 | 0.0 | 0.0 | 0.00 | 0.00 | 0.00 | 26 | 1020.6 |
| 20260502160942 | 59 | 249 | 0.0 | 1.7 | 0.00 | 0.00 | 0.00 | 27 | 1020.7 |
| 20260502160438 | 59 | 249 | 0.0 | 1.7 | 0.00 | 0.00 | 0.00 | 28 | 1020.7 |
| 20260502151842 | 55 | 245 | 0.0 | 0.9 | 0.00 | 0.00 | 0.00 | 33 | 1021.0 |
| 20260502151337 | 55 | 244 | 0.0 | 0.9 | 0.00 | 0.00 | 0.00 | 34 | 1021.1 |
| 20260502150326 | 54 | 244 | 0.0 | 0.0 | 0.00 | 0.00 | 0.00 | 35 | 1021.1 |
| 20260502130607 | 37 | 0 | 0.0 | 0.0 | 0.00 | 0.00 | 0.00 | 62 | 1021.3 |
| 20260502123530 | 36 | 93 | 0.0 | 0.0 | 0.00 | 0.00 | 0.00 | 60 | 1021.1 |
| 20260502123033 | 36 | 93 | 0.0 | 0.0 | 0.00 | 0.00 | 0.00 | 60 | 1021.0 |
| 20260502122519 | 37 | 93 | 0.0 | 0.0 | 0.00 | 0.00 | 0.00 | 60 | 1021.0 |
| 20260502121511 | 37 | 93 | 0.0 | 0.0 | 0.00 | 0.00 | 0.00 | 59 | 1020.8 |
| 20260502121011 | 37 | 93 | 0.0 | 0.0 | 0.00 | 0.00 | 0.00 | 59 | 1020.8 |
| 20260502120510 | 37 | 93 | 0.0 | 0.0 | 0.00 | 0.00 | 0.00 | 59 | 1020.8 |
| 20260502115006 | 37 | 93 | 0.0 | 0.0 | 0.00 | 0.00 | 0.00 | 58 | 1020.8 |
| 20260502112503 | 38 | 93 | 0.0 | 0.0 | 0.00 | 0.00 | 0.00 | 57 | 1020.6 |
| 20260502112002 | 38 | 93 | 0.0 | 0.0 | 0.00 | 0.00 | 0.00 | 56 | 1020.6 |
| 20260502111458 | 38 | 93 | 0.0 | 0.0 | 0.00 | 0.00 | 0.00 | 56 | 1020.7 |
| 20260502110959 | 38 | 93 | 0.0 | 0.0 | 0.00 | 0.00 | 0.00 | 56 | 1020.7 |
| 20260502105958 | 39 | 93 | 0.0 | 0.0 | 0.00 | 0.00 | 0.00 | 56 | 1020.6 |
| 20260502105459 | 39 | 93 | 0.0 | 0.0 | 0.00 | 0.00 | 0.00 | 56 | 1020.7 |
| 20260502104957 | 39 | 93 | 0.0 | 0.0 | 0.00 | 0.00 | 0.00 | 56 | 1020.7 |
| 20260502104459 | 39 | 93 | 0.0 | 0.0 | 0.00 | 0.00 | 0.00 | 56 | 1020.6 |
| 20260502103955 | 39 | 93 | 0.0 | 0.0 | 0.00 | 0.00 | 0.00 | 56 | 1020.6 |
| 20260502103454 | 40 | 93 | 0.0 | 0.0 | 0.00 | 0.00 | 0.00 | 56 | 1020.7 |
| 20260502102952 | 40 | 93 | 0.0 | 0.0 | 0.00 | 0.00 | 0.00 | 56 | 1020.7 |
| 20260502102451 | 40 | 93 | 0.0 | 0.0 | 0.00 | 0.00 | 0.00 | 56 | 1020.7 |
| 20260502101949 | 40 | 93 | 0.0 | 0.0 | 0.00 | 0.00 | 0.00 | 56 | 1020.7 |
| 20260502100948 | 40 | 93 | 0.0 | 0.0 | 0.00 | 0.00 | 0.00 | 55 | 1020.6 |
| 20260502100447 | 40 | 93 | 0.0 | 0.0 | 0.00 | 0.00 | 0.00 | 55 | 1020.4 |
| 20260502091440 | 42 | 92 | 0.0 | 0.0 | 0.00 | 0.00 | 0.00 | 54 | 1020.1 |
| 20260502090942 | 42 | 91 | 0.0 | 0.0 | 0.00 | 0.00 | 0.00 | 54 | 1020.1 |
| 20260502090440 | 42 | 91 | 0.0 | 0.0 | 0.00 | 0.00 | 0.00 | 54 | 1020.0 |
| 20260502071426 | 44 | 90 | 0.0 | 0.0 | 0.00 | 0.00 | 0.00 | 40 | 1020.2 |
| 20260502070925 | 45 | 90 | 0.0 | 0.0 | 0.00 | 0.00 | 0.00 | 39 | 1020.3 |
| 20260502070422 | 45 | 90 | 0.0 | 0.0 | 0.00 | 0.00 | 0.00 | 39 | 1020.3 |
| 20260502065422 | 46 | 90 | 0.0 | 0.0 | 0.00 | 0.00 | 0.00 | 38 | 1020.4 |
| 20260502064920 | 46 | 90 | 0.0 | 0.0 | 0.00 | 0.00 | 0.00 | 38 | 1020.4 |
| 20260502064422 | 46 | 90 | 0.0 | 0.0 | 0.00 | 0.00 | 0.00 | 37 | 1020.4 |
| 20260502063415 | 47 | 90 | 0.0 | 0.0 | 0.00 | 0.00 | 0.00 | 37 | 1020.4 |
| 20260502062407 | 47 | 90 | 0.0 | 0.0 | 0.00 | 0.00 | 0.00 | 37 | 1020.4 |
| 20260502061903 | 47 | 90 | 0.0 | 0.0 | 0.00 | 0.00 | 0.00 | 37 | 1020.6 |
| 20260502061355 | 47 | 90 | 0.0 | 0.0 | 0.00 | 0.00 | 0.00 | 37 | 1020.4 |
| 20260502060850 | 47 | 90 | 0.0 | 0.0 | 0.00 | 0.00 | 0.00 | 36 | 1020.6 |
| 20260502060351 | 47 | 90 | 0.0 | 0.0 | 0.00 | 0.00 | 0.00 | 36 | 1020.4 |
| 20260502055849 | 47 | 90 | 0.0 | 0.0 | 0.00 | 0.00 | 0.00 | 36 | 1020.4 |
| 20260502055347 | 47 | 90 | 0.0 | 0.0 | 0.00 | 0.00 | 0.00 | 36 | 1020.4 |
| 20260502054847 | 47 | 90 | 0.0 | 0.0 | 0.00 | 0.00 | 0.00 | 36 | 1020.3 |
| 20260502054346 | 47 | 90 | 0.0 | 0.9 | 0.00 | 0.00 | 0.00 | 37 | 1020.3 |
| 20260502053846 | 47 | 84 | 0.0 | 0.9 | 0.00 | 0.00 | 0.00 | 36 | 1020.2 |
| 20260502053348 | 47 | 84 | 0.0 | 0.0 | 0.00 | 0.00 | 0.00 | 36 | 1020.2 |
| 20260502052844 | 47 | 84 | 0.0 | 0.0 | 0.00 | 0.00 | 0.00 | 35 | 1020.1 |
| 20260502052343 | 47 | 84 | 0.0 | 0.0 | 0.00 | 0.00 | 0.00 | 34 | 1020.1 |
| 20260502051843 | 48 | 84 | 0.0 | 0.0 | 0.00 | 0.00 | 0.00 | 34 | 1020.1 |
| 20260502051342 | 48 | 84 | 0.0 | 0.0 | 0.00 | 0.00 | 0.00 | 34 | 1020.1 |
| 20260502050841 | 48 | 84 | 0.0 | 0.0 | 0.00 | 0.00 | 0.00 | 34 | 1020.0 |
| 20260502050342 | 48 | 84 | 0.0 | 0.0 | 0.00 | 0.00 | 0.00 | 33 | 1020.1 |
| 20260502045840 | 48 | 84 | 0.0 | 0.0 | 0.00 | 0.00 | 0.00 | 34 | 1020.0 |
| 20260502045341 | 49 | 84 | 0.0 | 0.0 | 0.00 | 0.00 | 0.00 | 33 | 1020.1 |
| 20260502044341 | 49 | 84 | 0.0 | 0.0 | 0.00 | 0.00 | 0.00 | 33 | 1020.0 |
| 20260502043838 | 49 | 84 | 0.0 | 0.0 | 0.00 | 0.00 | 0.00 | 32 | 1020.0 |
| 20260502043340 | 49 | 84 | 0.0 | 0.0 | 0.00 | 0.00 | 0.00 | 32 | 1020.0 |
| 20260502042838 | 49 | 84 | 0.0 | 0.0 | 0.00 | 0.00 | 0.00 | 32 | 1019.9 |
| 20260502042338 | 50 | 84 | 0.0 | 0.0 | 0.00 | 0.00 | 0.00 | 32 | 1019.9 |
| 20260502041838 | 50 | 84 | 0.0 | 0.0 | 0.00 | 0.00 | 0.00 | 32 | 1019.9 |
| 20260502040335 | 50 | 84 | 0.0 | 0.0 | 0.00 | 0.00 | 0.00 | 31 | 1019.7 |
| 20260502035835 | 50 | 84 | 0.0 | 0.0 | 0.00 | 0.00 | 0.00 | 30 | 1019.6 |
| 20260502035334 | 51 | 84 | 0.0 | 0.0 | 0.00 | 0.00 | 0.00 | 30 | 1019.6 |
| 20260502034834 | 51 | 84 | 0.0 | 0.0 | 0.00 | 0.00 | 0.00 | 30 | 1019.6 |
| 20260502034334 | 51 | 84 | 0.0 | 0.0 | 0.00 | 0.00 | 0.00 | 30 | 1019.5 |
| 20260502033836 | 51 | 84 | 0.0 | 0.0 | 0.00 | 0.00 | 0.00 | 29 | 1019.4 |
| 20260502033335 | 51 | 84 | 0.0 | 0.0 | 0.00 | 0.00 | 0.00 | 29 | 1019.3 |
| 20260502032834 | 52 | 84 | 0.0 | 0.0 | 0.00 | 0.00 | 0.00 | 29 | 1019.3 |